Wind_Speed
40 37 28 20 19 16 20 23 27 29 21 19 17 17 16 16 15 16 17 19 20 21 22 22 23 24 26 27 30 32 33 34 33 25 25 26 24 24 26 27 26 24 23
37 36 32 29 31 27 19 17 20 23 20 21 19 19 18 18 19 19 20 22 23 24 24 25 25 25 27 28 30 32 34 35 35 32 28 26 28 27 24 26 29 24 26
29 35 33 37 29 30 23 19 26 23 24 23 22 21 21 21 21 21 23 25 27 28 29 29 29 30 31 33 33 33 33 33 34 34 32 31 27 30 26 24 27 31 26
27 26 30 34 37 38 35 28 31 29 29 27 25 24 24 24 25 25 27 28 30 32 33 33 33 34 34 35 36 37 36 34 34 33 32 32 30 30 31 25 26 28 29
27 24 34 34 29 26 26 31 35 32 30 27 26 25 26 27 28 29 30 32 33 34 36 37 38 38 39 39 39 37 36 35 35 35 33 32 31 33 31 29 25 28 31
26 29 28 24 27 25 29 32 31 32 31 29 28 27 28 31 35 37 33 33 36 38 38 41 43 41 40 41 41 39 37 34 33 33 34 34 32 32 32 30 27 27 30
26 27 28 28 29 31 32 33 34 34 32 29 28 29 31 33 38 36 36 35 38 40 43 42 40 42 40 39 38 38 38 38 37 35 34 35 32 30 31 30 30 28 29
27 33 32 34 34 37 39 39 38 38 38 36 33 34 27 33 43 43 40 39 42 43 43 43 43 43 44 40 37 37 37 36 35 35 34 37 33 30 30 29 29 29 28
24 37 35 37 38 42 44 43 40 42 38 39 39 29 21 36 43 43 41 41 43 43 43 42 40 39 39 38 35 33 33 34 37 36 34 32 34 31 30 28 28 30 30
33 34 39 37 44 43 42 42 47 45 26 21 18 20 29 39 39 38 40 42 42 41 39 38 37 36 36 37 38 37 35 33 35 34 35 32 31 31 31 29 26 30 30
24 40 41 38 38 45 41 50 45 33 21 18 17 25 27 31 35 37 37 37 36 36 35 35 37 38 38 37 37 34 34 34 33 32 32 32 30 30 31 29 26 28 29
33 38 39 39 34 25 29 25 27 30 18 24 22 25 27 27 33 31 30 31 32 34 34 33 34 35 35 35 34 33 30 30 29 29 29 29 28 29 29 29 26 27 27
25 27 19 17 16 21 8 11 15 18 20 20 23 21 20 23 25 26 28 28 28 29 30 32 32 32 31 31 30 30 29 28 28 27 27 28 26 27 27 27 26 26 24
9 6 7 6 5 6 12 12 13 15 17 20 19 18 20 22 24 25 25 25 25 28 29 27 27 27 27 29 28 28 29 30 28 27 25 25 25 25 25 25 25 25 21
7 5 2 3 6 8 11 13 15 17 19 20 22 22 21 23 24 24 24 24 25 27 27 27 26 26 26 25 24 26 27 28 28 26 25 24 22 22 23 23 23 21 19
7 6 8 10 10 10 12 16 16 18 20 21 22 23 23 24 24 23 24 26 27 28 27 27 26 24 23 22 24 24 24 24 26 25 24 21 20 20 22 21 20 19 19
9 8 10 11 12 13 13 14 15 18 20 22 23 25 26 25 25 25 25 23 26 27 26 25 24 22 21 22 23 23 21 21 23 22 20 18 18 19 20 19 19 18 18
9 10 11 12 13 14 15 15 16 17 18 20 23 25 25 25 25 25 23 22 24 24 25 23 21 21 22 23 24 23 20 19 19 18 16 15 17 18 19 19 18 18 18
13 13 14 14 14 16 17 18 18 19 19 19 21 22 23 24 24 25 22 21 23 22 21 18 19 21 22 22 23 23 19 17 17 13 12 14 15 17 18 19 18 18 17
17 18 18 18 17 17 17 17 17 18 19 20 21 23 24 25 24 23 21 20 21 20 19 19 20 21 21 22 22 22 19 17 17 14 12 13 14 16 18 19 20 19 19
16 16 16 16 17 17 17 17 18 18 19 20 21 22 25 25 23 21 18 19 21 21 22 22 23 23 23 23 21 21 19 16 18 18 15 13 13 15 18 21 22 20 20
16 16 15 15 16 16 17 18 19 19 20 20 21 21 24 24 23 20 19 20 22 22 25 27 25 23 23 22 22 21 19 16 17 20 20 17 14 13 17 20 21 20 21
17 16 16 16 16 17 18 19 19 20 21 22 23 22 24 23 22 20 20 22 23 25 25 24 25 24 22 21 21 21 19 15 17 20 22 21 17 15 15 17 19 20 22
25 23 21 20 19 19 19 19 20 20 21 23 24 24 26 23 21 22 22 24 25 25 24 26 28 25 22 19 19 21 19 16 17 21 25 24 20 18 17 16 17 19 21
29 27 25 23 22 20 20 20 21 21 22 24 25 26 27 24 22 22 23 27 26 22 25 28 26 20 18 16 17 19 19 17 17 21 25 26 24 21 20 18 18 19 20
29 29 27 24 23 22 21 21 22 22 23 25 26 27 28 25 23 24 25 28 24 22 25 24 19 14 12 15 17 18 17 16 17 20 23 26 26 23 22 20 19 20 20
Wind_Direction
244 234 231 231 245 252 274 276 276 276 246 245 247 253 257 262 271 277 283 289 291 292 293 293 294 295 296 295 294 294 295 297 297 294 286 286 280 268 266 270 267 264 271
234 231 238 240 242 241 254 268 260 250 247 245 245 250 256 265 271 281 291 295 294 293 290 290 291 291 292 291 289 289 291 293 293 292 287 281 279 276 261 263 265 260 262
243 240 252 245 238 240 250 260 257 251 250 246 248 252 258 268 278 285 288 291 293 294 294 295 294 294 294 293 291 287 286 286 287 286 284 280 274 273 266 254 257 258 255
228 246 244 239 248 264 253 237 244 245 244 245 249 256 264 272 277 281 284 286 290 293 295 295 295 295 298 299 298 295 293 292 291 291 289 285 282 276 274 262 255 259 255
227 260 247 251 256 237 229 231 237 241 245 246 250 258 268 274 276 279 284 287 291 295 299 299 300 300 298 297 295 296 294 293 290 287 283 281 281 280 274 271 260 255 258
241 252 246 237 240 239 232 237 245 249 247 248 252 258 266 272 274 276 286 291 293 297 298 299 299 299 299 297 296 294 291 287 284 282 279 274 270 272 271 268 264 257 257
247 223 221 242 242 238 237 242 247 246 243 241 248 258 263 278 286 281 286 290 294 296 297 300 303 302 300 296 296 296 295 294 291 286 280 277 274 270 268 265 262 256 253
230 218 228 233 236 240 247 244 245 244 245 247 253 257 269 269 279 289 292 293 297 301 301 303 303 300 298 295 293 289 285 282 283 284 285 281 276 270 269 267 260 259 257
242 227 234 234 237 241 243 244 243 241 242 250 252 254 267 273 278 283 285 293 298 300 302 302 301 299 296 295 291 288 283 283 282 280 276 274 276 274 270 264 258 253 250
245 238 240 247 237 240 245 242 247 246 249 252 262 267 266 267 269 284 295 297 298 299 300 300 298 296 296 294 293 290 286 281 279 278 277 274 271 272 271 268 259 255 250
247 244 240 244 254 251 243 241 241 234 280 292 283 279 278 286 289 293 293 294 297 296 297 296 296 296 295 293 289 286 280 276 273 272 272 271 268 266 266 266 264 257 249
242 244 242 242 236 233 235 245 252 260 290 278 283 280 283 290 286 287 289 291 290 292 294 297 296 294 291 287 285 282 280 279 281 277 271 267 265 262 262 264 263 258 251
221 232 221 225 227 242 298 281 262 261 272 283 280 286 291 288 287 287 288 289 293 298 298 295 295 290 287 287 284 283 284 283 282 280 274 267 261 259 258 261 261 259 253
196 256 339 325 313 271 270 281 286 285 287 292 299 302 298 294 293 293 296 297 296 295 297 299 297 298 295 289 289 286 282 282 283 279 276 268 259 255 255 256 257 259 257
17 341 317 294 288 292 292 301 306 311 312 310 308 304 303 295 294 292 287 287 291 292 294 299 298 295 297 297 296 289 284 279 278 281 277 270 257 251 251 252 254 254 253
40 4 357 344 342 338 327 324 320 317 314 310 305 300 298 295 290 294 292 288 290 293 294 293 296 296 306 311 302 295 285 275 273 277 275 267 251 245 246 248 251 248 245
7 353 345 342 336 334 329 321 316 312 309 312 314 312 306 301 299 299 296 293 297 299 294 290 295 307 317 314 310 305 289 276 270 272 269 256 242 237 240 240 245 242 238
354 349 346 339 333 329 320 314 313 314 317 316 314 311 308 303 301 300 296 296 301 301 297 296 302 307 311 317 317 311 295 274 270 270 259 246 238 234 233 233 239 238 231
353 343 337 329 329 332 331 329 326 324 321 314 311 312 314 311 307 305 298 301 304 310 313 304 302 305 308 313 317 314 299 271 263 265 251 241 235 230 226 228 233 232 223
350 345 339 334 330 326 325 325 323 323 323 321 320 321 320 319 316 309 298 296 303 312 321 316 305 304 308 309 314 314 302 272 251 248 250 239 231 225 220 222 228 226 215
341 336 334 332 330 327 324 326 326 327 330 327 325 324 325 323 318 313 296 294 303 308 311 312 310 304 300 302 308 313 303 273 251 240 239 238 232 219 216 219 223 221 211
350 345 340 334 329 328 330 332 332 329 329 330 330 326 327 325 322 321 313 304 307 310 310 310 309 302 296 297 303 311 306 274 248 237 231 231 228 218 214 219 220 216 208
2 356 351 347 344 340 338 338 337 335 334 335 334 331 333 329 327 323 318 316 313 312 311 311 312 309 294 293 299 307 304 278 244 232 225 225 222 216 214 218 217 212 206
7 3 359 355 352 348 344 342 340 338 337 339 338 337 336 332 326 324 325 324 320 316 313 313 310 303 297 287 295 303 299 276 243 227 221 219 218 212 210 215 215 208 204
6 4 1 358 354 351 348 345 343 342 342 342 341 340 338 334 328 327 329 332 327 323 321 318 313 305 295 289 297 301 292 272 242 226 219 214 213 210 207 211 213 207 202
3 2 0 357 354 351 349 348 346 345 345 345 343 341 339 336 333 330 329 330 328 325 329 328 323 316 305 307 307 305 290 267 235 222 214 210 210 209 206 207 211 210 203
Height
3120 3123 3125 3126 3127 3130 3133 3131 3132 3132 3132 3131 3131 3132 3132 3132 3130 3129 3127 3125 3124 3121 3120 3118 3114 3111 3108 3105 3103 3100 3097 3093 3092 3094 3092 3087 3086 3083 3080 3080 3081 3081 3080
3112 3114 3117 3116 3116 3117 3122 3123 3125 3126 3126 3128 3127 3128 3127 3127 3126 3125 3123 3121 3119 3116 3114 3111 3107 3104 3101 3098 3095 3093 3090 3086 3084 3083 3082 3081 3078 3077 3075 3072 3074 3074 3074
3105 3108 3109 3108 3110 3111 3114 3116 3120 3120 3122 3123 3123 3122 3121 3121 3121 3119 3117 3115 3113 3111 3108 3105 3102 3098 3095 3091 3088 3083 3079 3077 3074 3072 3071 3071 3070 3068 3068 3063 3065 3067 3068
3098 3102 3102 3104 3106 3106 3105 3110 3112 3113 3115 3117 3116 3116 3115 3114 3113 3112 3109 3106 3104 3101 3098 3096 3092 3089 3086 3084 3081 3078 3074 3070 3067 3065 3064 3061 3063 3063 3065 3060 3058 3060 3061
3094 3095 3097 3099 3098 3100 3100 3101 3104 3105 3108 3109 3109 3109 3108 3107 3106 3104 3101 3099 3095 3092 3089 3086 3084 3081 3077 3074 3073 3070 3066 3064 3061 3058 3057 3053 3051 3054 3059 3055 3054 3054 3054
3088 3089 3089 3092 3093 3092 3094 3098 3099 3099 3101 3102 3102 3102 3101 3099 3097 3095 3092 3089 3087 3084 3080 3077 3075 3072 3069 3064 3061 3058 3056 3052 3050 3049 3049 3047 3039 3039 3048 3048 3047 3047 3047
3079 3081 3084 3085 3086 3086 3088 3090 3091 3091 3091 3092 3093 3093 3091 3088 3085 3082 3080 3079 3077 3073 3070 3066 3063 3061 3058 3055 3051 3048 3046 3043 3043 3042 3040 3040 3036 3030 3035 3038 3038 3039 3040
3070 3073 3075 3077 3077 3078 3080 3081 3081 3081 3081 3082 3083 3083 3083 3079 3075 3074 3071 3068 3065 3063 3059 3055 3051 3048 3047 3044 3041 3037 3035 3032 3029 3029 3031 3033 3029 3026 3025 3028 3030 3031 3034
3064 3066 3067 3069 3070 3070 3071 3071 3070 3072 3072 3071 3072 3071 3074 3072 3068 3064 3060 3057 3054 3050 3047 3043 3040 3037 3034 3030 3032 3029 3026 3024 3021 3019 3018 3020 3021 3019 3019 3020 3021 3023 3026
3056 3058 3059 3061 3059 3059 3061 3066 3066 3064 3063 3064 3063 3063 3065 3060 3056 3054 3051 3048 3043 3040 3038 3033 3030 3029 3026 3023 3020 3018 3015 3014 3013 3011 3009 3009 3009 3010 3012 3012 3013 3015 3018
3049 3051 3052 3054 3057 3056 3054 3055 3054 3056 3055 3054 3058 3056 3051 3050 3048 3044 3042 3040 3035 3032 3030 3027 3022 3018 3015 3013 3011 3009 3008 3004 3003 3002 3001 3000 3000 3001 3003 3003 3005 3007 3010
3041 3043 3044 3044 3045 3047 3047 3049 3049 3049 3050 3052 3047 3045 3043 3039 3039 3037 3034 3031 3028 3024 3021 3018 3013 3010 3007 3005 3001 3000 2997 2993 2992 2992 2992 2991 2992 2992 2994 2996 2998 3000 3003
3029 3035 3039 3039 3040 3042 3043 3044 3043 3043 3042 3041 3041 3038 3034 3033 3031 3028 3027 3025 3021 3015 3012 3009 3006 3003 2998 2994 2992 2989 2985 2983 2983 2984 2983 2983 2984 2985 2987 2989 2991 2993 2996
3029 3033 3035 3038 3036 3036 3040 3041 3038 3036 3035 3035 3031 3028 3027 3025 3024 3021 3017 3015 3012 3009 3006 3002 2997 2993 2990 2988 2982 2977 2975 2974 2975 2975 2975 2974 2976 2978 2980 2982 2985 2986 2989
3036 3036 3037 3037 3035 3035 3035 3037 3032 3027 3026 3025 3023 3021 3019 3019 3015 3013 3010 3008 3005 3002 2999 2994 2990 2986 2982 2976 2972 2969 2966 2966 2966 2966 2966 2967 2969 2971 2973 2976 2979 2981 2983
3034 3034 3037 3035 3031 3030 3030 3027 3025 3022 3020 3019 3018 3016 3013 3012 3010 3006 3002 3000 2997 2993 2991 2986 2983 2979 2971 2966 2965 2961 2959 2958 2958 2958 2958 2960 2962 2965 2967 2970 2974 2976 2978
3035 3035 3035 3032 3030 3028 3027 3026 3022 3020 3018 3014 3011 3008 3006 3004 3001 2998 2995 2993 2988 2985 2981 2977 2974 2969 2963 2961 2957 2954 2952 2951 2951 2951 2951 2953 2956 2959 2962 2965 2968 2970 2974
3036 3034 3032 3030 3027 3025 3025 3023 3019 3016 3012 3008 3005 3004 3000 2996 2993 2990 2986 2984 2981 2977 2973 2967 2963 2960 2958 2954 2950 2947 2945 2944 2944 2944 2945 2947 2950 2953 2956 2960 2962 2965 2969
3033 3033 3029 3028 3025 3023 3020 3017 3013 3011 3007 3004 3002 2999 2994 2989 2985 2982 2978 2975 2974 2970 2964 2960 2956 2954 2951 2948 2944 2941 2939 2938 2939 2938 2940 2942 2945 2948 2951 2954 2957 2960 2964
3031 3028 3026 3023 3022 3020 3018 3015 3012 3007 3004 3001 2996 2992 2987 2983 2977 2973 2971 2970 2967 2963 2959 2955 2952 2948 2945 2942 2939 2936 2933 2932 2933 2934 2936 2938 2940 2943 2946 2949 2951 2955 2959
3032 3030 3026 3023 3019 3017 3016 3012 3008 3003 3000 2996 2992 2987 2983 2977 2972 2968 2966 2963 2961 2957 2953 2949 2946 2942 2939 2937 2933 2930 2927 2926 2927 2929 2931 2933 2935 2938 2940 2943 2946 2950 2954
3032 3028 3025 3022 3019 3015 3012 3007 3003 3000 2997 2992 2987 2982 2977 2972 2966 2962 2959 2957 2954 2950 2946 2942 2939 2935 2932 2930 2926 2923 2921 2920 2920 2923 2926 2929 2931 2934 2936 2939 2942 2946 2950
3031 3028 3024 3020 3016 3012 3007 3003 2999 2995 2991 2986 2981 2977 2971 2966 2961 2958 2955 2951 2947 2943 2939 2935 2931 2928 2925 2922 2919 2916 2914 2913 2914 2916 2920 2924 2927 2930 2932 2935 2938 2942 2946
3027 3023 3019 3016 3011 3007 3003 2999 2995 2991 2986 2981 2976 2971 2966 2961 2957 2954 2950 2945 2940 2936 2932 2928 2923 2919 2916 2914 2912 2909 2907 2905 2906 2909 2913 2918 2922 2925 2928 2931 2934 2938 2942
3026 3021 3016 3012 3008 3004 3000 2996 2991 2987 2982 2977 2972 2967 2962 2957 2953 2948 2944 2939 2934 2929 2925 2919 2914 2910 2908 2906 2905 2902 2899 2898 2899 2902 2906 2911 2916 2920 2925 2928 2931 2935 2939
3025 3020 3015 3010 3006 3001 2997 2993 2988 2983 2978 2973 2968 2963 2957 2952 2948 2943 2939 2933 2928 2924 2918 2913 2908 2904 2902 2900 2898 2895 2892 2891 2892 2896 2900 2905 2911 2915 2920 2925 2928 2931 2936